Lexington Weather

Lexington, Massachusetts, USA

68°F
7/3/2020 12:08pm 
  • Lexington Conditions: Overcast
  • Temperature: 68.2°F / 20.1°CColder 1.1°F than last hour.
  • Dew Point: 64.2°FDecreased 1.3°Fsince last hour.
  • Relative Humidity: 87%Decreased 1.0% since last hour.
  • Wind: Wind from NNE NNE Calm, 10-min avg: 1 mph, gust: 4 mph
  • Barometer: 29.86 inRising 0.02  inHg/hr Rising Slowly
  • Visibility: 10 miles
  • Rain Today: 0.00 in
  •   

Regional Weather Roundup
for Boston / Norton, MA

        
000
ASUS41 KBOX 291504
RWRBOX

REGIONAL WEATHER ROUNDUP
NATIONAL WEATHER SERVICE BOSTON/NORTON MA
1100 AM EDT MON JUN 29 2020

NOTE:  "FAIR" INDICATES FEW OR NO CLOUDS BELOW 12,000 FEET WITH NO 
SIGNIFICANT WEATHER AND/OR OBSTRUCTIONS TO VISIBILITY.

MAZALL-291600-
EASTERN MASSACHUSETTS
  
CITY           SKY/WX    TMP DP  RH WIND       PRES   REMARKS
BOSTON         CLOUDY    68  64  87 E12       29.81R                  
BEVERLY        HVY RAIN  68  67  96 NE8       29.81R VSB 3/4          
LAWRENCE       LGT RAIN  68  66  93 N7        29.84R FOG              
BEDFORD        CLOUDY    72  65  78 N10       29.80R                  
BLUE HILL        N/A     71  67  87 VRB5      29.80S                  
NORWOOD        CLOUDY    75  66  73 N5        29.79S                  
MARSHFIELD     PTSUNNY   70  68  94 CALM      29.80S                  
PLYMOUTH       CLOUDY    73  66  78 NE9       29.79R                  
TAUNTON        CLOUDY    78  66  66 MISG      29.78S                  
NEW BEDFORD    CLOUDY    75  70  84 NE5       29.78R                  
$$

MAZALL-291600-
CAPE COD AND THE ISLANDS
  
CITY           SKY/WX    TMP DP  RH WIND       PRES   REMARKS
FALMOUTH       CLOUDY    73  68  83 NE8       29.78R                  
HYANNIS        CLOUDY    74  69  85 CALM      29.76F HAZE             
CHATHAM        CLOUDY    65  63  93 SE3         N/A                   
PROVINCETOWN   CLOUDY    70  67  90 NE8       29.80R                  
NANTUCKET      PTSUNNY   70  66  87 NE5       29.75F                  
MARTHAS VNYRD  CLOUDY    74  69  85 N8        29.77R                  
$$
 
MAZALL-291600-
CENTRAL AND WESTERN MASSACHUSETTS
  
CITY           SKY/WX    TMP DP  RH WIND       PRES   REMARKS
WORCESTER      CLOUDY    68  64  87 NE7       29.84S                  
FITCHBURG      CLOUDY    75  65  70 NE8       29.83R                  
ORANGE         RAIN      68  66  93 N5        29.84F FOG              
SPRINGFIELD    LGT RAIN  72  65  79 N9        29.81S                  
WESTFIELD      LGT RAIN  71  64  78 N13       29.82S                  
NORTH ADAMS    LGT RAIN  72  66  81 CALM      29.84S                  
PITTSFIELD     PTSUNNY   72  65  78 N3        29.85S                  
$$
 
RIZALL-291600-
RHODE ISLAND
  
CITY           SKY/WX    TMP DP  RH WIND       PRES   REMARKS
PROVIDENCE     PTSUNNY   76  66  71 NE8       29.79S                  
NEWPORT        PTSUNNY   77  67  71 N8        29.78S                  
BLOCK ISLAND   CLOUDY    68  68 100 NE6       29.80R FOG              
SMITHFIELD     PTSUNNY   74  68  81 N7        29.81S                  
WESTERLY       MOSUNNY   78  65  63 N9        29.79S                  
$$
 
CTZALL-291600-
CONNECTICUT
  
CITY           SKY/WX    TMP DP  RH WIND       PRES   REMARKS
BRADLEY INTL   PTSUNNY   80  62  54 N16       29.81S                  
HARTFORD       PTSUNNY   79  65  62 NE12      29.79F                  
BRIDGEPORT     CLOUDY    77  66  68 NE8       29.81R                  
DANBURY        PTSUNNY   77  66  68 N8        29.84S                  
GROTON         CLOUDY    76  68  76 N8        29.78S                  
NEW HAVEN      PTSUNNY   80  67  64 N12G17    29.80S                  
CHESTER        NOT AVBL                                               
MERIDEN        NOT AVBL                                               
WILLIMANTIC    CLOUDY    74  67  78 NE10      29.80S                  
OXFORD         PTSUNNY   74  66  76 N8        29.84S                  
$$

MEZ002-015-021-024-NHZ003-005-008-011-012-014-VTZ005-008-291600-
NORTHERN NEW ENGLAND
  
CITY           SKY/WX    TMP DP  RH WIND       PRES   REMARKS
PORTLAND ME    RAIN      65  62  90 E9        29.85R FOG              
BANGOR ME      LGT RAIN  69  63  81 E8        29.91R                  
CONCORD NH     CLOUDY    73  65  75 NE9       29.83S                  
MANCHESTER NH  CLOUDY    71  65  81 NE12      29.81S                  
NASHUA NH      CLOUDY    71  68  90 N7        29.83R                  
PORTSMOUTH NH  CLOUDY    66  64  94 N10       29.81S                  
JAFFREY NH     PTSUNNY   72  62  71 VRB6      29.84F                  
KEENE NH       CLOUDY    73  65  75 N12       29.83F                  
BURLINGTON VT  CLOUDY    65  63  93 N10       29.89S FOG              
MT. WASHINGTON LGT RAIN  46  46 100 E17G24      N/A  VSB 1/16         
$$

NYZ052-076-291600-
EASTERN NEW YORK
  
CITY           SKY/WX    TMP DP  RH WIND       PRES   REMARKS
ALBANY         PTSUNNY   76  64  66 N8        29.86S                  
NEW YORK CITY  MOSUNNY   81  62  52 N13       29.82R                  
$$
 
ANZALL-291600-
MARINE OBSERVATIONS
  
STATION/POSITION TIME  TEMP    WIND        PRES    VSBY  WAVE
                       AIR SEA DIR/SP/G                  HT/PER
                 (UTC) (F)     (DEG/KT/KT) (MB)    (MI)  (FT/S)
BOSTON BUOY      1350   67 68   80/  8/ 10 1007.9          1/11
BUZZARDS BAY     1400           10/  5/  5 1009.0F
NANTUCKET SOUND  1420   67 70   80/  6/  8 1007.7
MASS BAY-STELLWA 1404   65      40/  6/  6 1006.9R  1 7/8  2/ 8
ISLE OF SHOALS   1400   62      10/ 17/ 19 1009.1R
S OF BLOCK IS    1426      70                N/A           3/11
$$

......................KEY.........................
  SKY/WX - SKY CONDITION/PRESENT WEATHER
  TMP    - TEMPERATURE IN FAHRENHEIT
  DWPT   - DEWPOINT IN FAHRENHEIT
  RH     - RELATIVE HUMIDITY IN PERCENT
  WIND   - DIRECTION AND SPEED IN MPH
  PRES   - MEAN SEA LEVEL PRESSURE IN INCHES OF HG
  WCI    - WIND CHILL INDEX
  VSB    - VISIBILITY IN MILES
  HX     - HEAT INDEX
  TC     - TEMPERATURE IN CELSIUS
  VRB    - VARIABLE WIND DIRECTION
  N/A    - NOT AVAILABLE
  
      

Other recent Regional Weather Roundups

Fri Jul 3, 11:04am

Fri Jul 3, 10:04am

Fri Jul 3, 9:04am

Fri Jul 3, 8:04am

Fri Jul 3, 7:04am

Fri Jul 3, 6:04am

Fri Jul 3, 5:04am

Fri Jul 3, 4:04am

Fri Jul 3, 3:04am

Fri Jul 3, 2:04am

Fri Jul 3, 1:04am

Fri Jul 3, 12:04am

Thu Jul 2, 11:05pm

Thu Jul 2, 10:04pm

Thu Jul 2, 9:04pm

Thu Jul 2, 8:04pm

Thu Jul 2, 7:05pm

Thu Jul 2, 6:04pm

Thu Jul 2, 5:05pm

Thu Jul 2, 4:04pm

Thu Jul 2, 3:04pm

Thu Jul 2, 2:04pm

Thu Jul 2, 1:05pm

Thu Jul 2, 12:04pm

Thu Jul 2, 11:04am

Thu Jul 2, 10:05am

Thu Jul 2, 9:05am

Thu Jul 2, 8:04am

Thu Jul 2, 7:04am

Thu Jul 2, 6:05am

Thu Jul 2, 5:04am

Thu Jul 2, 4:04am

Thu Jul 2, 3:04am

Thu Jul 2, 2:04am

Thu Jul 2, 1:04am

Thu Jul 2, 12:05am

Wed Jul 1, 11:05pm

Wed Jul 1, 10:04pm

Wed Jul 1, 9:04pm

Wed Jul 1, 8:04pm

Wed Jul 1, 7:04pm

Wed Jul 1, 6:04pm

Wed Jul 1, 5:05pm

Wed Jul 1, 4:04pm

Wed Jul 1, 3:04pm

Wed Jul 1, 2:04pm

Wed Jul 1, 1:04pm

Wed Jul 1, 12:04pm

Wed Jul 1, 11:04am

Wed Jul 1, 10:04am

Wed Jul 1, 9:04am

Wed Jul 1, 8:05am

Wed Jul 1, 7:04am

Wed Jul 1, 6:04am

Wed Jul 1, 5:04am

Wed Jul 1, 4:04am

Wed Jul 1, 3:04am

Wed Jul 1, 2:04am

Wed Jul 1, 1:04am

Wed Jul 1, 12:04am

Tue Jun 30, 11:04pm

Tue Jun 30, 10:05pm

Tue Jun 30, 9:04pm

Tue Jun 30, 8:05pm

Tue Jun 30, 7:05pm

Tue Jun 30, 6:04pm

Tue Jun 30, 5:04pm

Tue Jun 30, 4:04pm

Tue Jun 30, 3:04pm

Tue Jun 30, 2:04pm

Tue Jun 30, 1:04pm

Tue Jun 30, 12:04pm

Tue Jun 30, 11:04am

Tue Jun 30, 10:04am

Tue Jun 30, 9:04am

Tue Jun 30, 8:04am

Tue Jun 30, 7:04am

Tue Jun 30, 6:04am

Tue Jun 30, 5:04am

Tue Jun 30, 4:04am

Tue Jun 30, 3:04am

Tue Jun 30, 2:04am

Tue Jun 30, 1:04am

Tue Jun 30, 12:04am

Mon Jun 29, 11:04pm

Mon Jun 29, 10:05pm

Mon Jun 29, 9:04pm

Mon Jun 29, 8:05pm

Mon Jun 29, 7:04pm

Mon Jun 29, 6:04pm

Mon Jun 29, 5:04pm

Mon Jun 29, 4:05pm

Mon Jun 29, 3:04pm

Mon Jun 29, 2:04pm

Mon Jun 29, 1:04pm

Mon Jun 29, 12:04pm

Mon Jun 29, 10:04am

Mon Jun 29, 9:04am

Mon Jun 29, 8:04am

Mon Jun 29, 7:04am

Mon Jun 29, 6:04am

Mon Jun 29, 5:04am

Mon Jun 29, 4:04am

Mon Jun 29, 3:04am

Mon Jun 29, 2:04am

Mon Jun 29, 1:04am

Mon Jun 29, 12:04am

Sun Jun 28, 11:05pm

Sun Jun 28, 10:04pm

Sun Jun 28, 9:05pm

Sun Jun 28, 8:04pm

Sun Jun 28, 7:04pm

Sun Jun 28, 6:04pm

Sun Jun 28, 5:04pm

Sun Jun 28, 4:04pm

Sun Jun 28, 3:04pm

Sun Jun 28, 2:05pm

Sun Jun 28, 1:04pm

Sun Jun 28, 12:04pm

Sun Jun 28, 11:04am

Sun Jun 28, 10:04am

Sun Jun 28, 9:04am

Sun Jun 28, 8:04am

Sun Jun 28, 7:04am

Sun Jun 28, 6:04am

Sun Jun 28, 5:04am

Sun Jun 28, 4:04am

Sun Jun 28, 3:04am

Sun Jun 28, 2:05am

Sun Jun 28, 1:04am

Sun Jun 28, 12:05am

Sat Jun 27, 11:04pm

Sat Jun 27, 10:04pm

Sat Jun 27, 9:04pm

Sat Jun 27, 8:04pm

Sat Jun 27, 7:04pm

Sat Jun 27, 6:04pm

Sat Jun 27, 5:04pm

Sat Jun 27, 4:05pm

Sat Jun 27, 3:04pm

Sat Jun 27, 2:04pm

Sat Jun 27, 1:05pm

Sat Jun 27, 12:04pm

Sat Jun 27, 11:04am

Sat Jun 27, 10:04am

Sat Jun 27, 9:04am

Sat Jun 27, 8:04am

Sat Jun 27, 7:04am

Sat Jun 27, 6:04am

Sat Jun 27, 5:05am

Sat Jun 27, 4:04am

Sat Jun 27, 3:04am

Sat Jun 27, 2:04am

Sat Jun 27, 1:04am

Sat Jun 27, 12:04am

Fri Jun 26, 11:04pm

Fri Jun 26, 10:04pm

Fri Jun 26, 9:05pm

Fri Jun 26, 8:04pm

Fri Jun 26, 7:05pm

Fri Jun 26, 6:04pm

Fri Jun 26, 5:04pm

Fri Jun 26, 4:04pm

Fri Jun 26, 3:04pm

Fri Jun 26, 2:05pm

Fri Jun 26, 1:04pm

Fri Jun 26, 12:05pm

Meta data:

ID: 1a1745c6-b8f6-4687-b11f-44ece9354ef7
Link: https://api.weather.gov/products/1a1745c6-b8f6-4687-b11f-44ece9354ef7